Starlink 11089

operational
NORAD ID: 59426 Int'l Des: 2024-065 Owner: SPXS Country: US Constellation: starlink
LEOCIRCULAR

About Starlink 11089

Description loading...

Live Position

Loading 3D Globe...

Upcoming Passes

Altitude History

Altitude vs Time

uPlot chart will show altitude changes over time

Two-Line Element Set

1 59426U 24065F 25306.43487522 .00004391 00000-0 41085-4 0 9993
2 59426 53.1590 1.4145 0001427 113.4019 246.7149 15.69709184 91530
Epoch: Nov 2, 2025 • Age: 13 hours

Current Status

Altitude 364.3 km
Velocity 7.70 km/s
Sub-Earth Point 48.85°N, 90.92°E
Launch Date Apr 7, 2024
Age 1.5 years
Type internet

Technical Details

Classification Payload
Mass 960.00 kg
Dry Mass 910.00 kg
Total Mass 960.00 kg
Length 0.30 m
Diameter 4.10 m
Span 29.00 m
Shape Box + pan
Manufacturer SPXS
Bus Type Starlink V2MD
Phase Status In Orbit
Owner/State SPXS/US

Large Constellations

Loading constellations...